Buckhead, Georgia, United States (30625)
Lat: 33.57N, Lon: 83.36W
Wx Zone: GAZ049
Local Info
Past Weather Observations for Today

NOTE: This archive is for the closest National Weather Service station to Buckhead. Information may differ from the station used for current weather conditions.

Click here for Long-term Archive

Time Weather Temperature Dewpoint Humidity Pressure Winds Precip Visibility
15:35
Overcast
Drizzle
54°F / 12°C 54°F / 12°C 100% 29.77 in
(1008 mb)
ENE 3.5 mph
(ENE 6 kph)
- 1 3/4SM
15:15
Overcast
Rain
54°F / 12°C 54°F / 12°C 100% 29.77 in
(1008 mb)
E 4.6 mph
(E 7 kph)
- 2SM
14:55
Overcast
Drizzle
54°F / 12°C 54°F / 12°C 100% 29.77 in
(1008 mb)
NE 3.5 mph
(NE 6 kph)
- 2 1/2SM
14:35
Overcast
Light Rain
54°F / 12°C 54°F / 12°C 100% 29.8 in
(1009 mb)
ENE 3.5 mph
(ENE 6 kph)
- 3SM
14:15
Overcast
Drizzle
54°F / 12°C 54°F / 12°C 100% 29.8 in
(1009 mb)
Calm - 2 1/2SM
13:55
Overcast
Rain
54°F / 12°C 54°F / 12°C 100% 29.83 in
(1010 mb)
NE 4.6 mph
(NE 7 kph)
- 2 1/2SM
13:35
Overcast
Thunder Storms
54°F / 12°C 54°F / 12°C 100% 29.86 in
(1011 mb)
NE 3.5 mph
(NE 6 kph)
- 2 1/2SM
13:15
Overcast
Heavy Rain
54°F / 12°C 54°F / 12°C 100% 29.86 in
(1011 mb)
Calm - 4SM
12:55
Overcast
Drizzle
54°F / 12°C 54°F / 12°C 100% 29.89 in
(1012 mb)
Calm - 3SM
12:35
Overcast
Rain
54°F / 12°C 54°F / 12°C 100% 29.92 in
(1013 mb)
Calm - 2 1/2SM
12:15
Overcast
Heavy Rain
54°F / 12°C 54°F / 12°C 100% 29.92 in
(1013 mb)
NE 3.5 mph
(NE 6 kph)
- 3SM
11:55
Overcast
Drizzle
54°F / 12°C 54°F / 12°C 100% 29.95 in
(1014 mb)
Calm - 3SM
11:35
Overcast
Drizzle
54°F / 12°C 52°F / 11°C 94% 29.95 in
(1014 mb)
E 3.5 mph
(E 6 kph)
- 4SM
11:15
Overcast
Rain
54°F / 12°C 52°F / 11°C 94% 29.98 in
(1015 mb)
ENE 5.8 mph
(ENE 9 kph)
- 5SM
10:55
Overcast
Light Rain
54°F / 12°C 52°F / 11°C 94% 29.98 in
(1015 mb)
E 5.8 mph
(E 9 kph)
- 5SM
10:35
Overcast
Heavy Rain
52°F / 11°C 52°F / 11°C 100% 29.98 in
(1015 mb)
ENE 6.9 mph
(ENE 11 kph)
- 5SM
10:15
Overcast
Thunder Storms
52°F / 11°C 52°F / 11°C 100% 29.98 in
(1015 mb)
ENE 8.1 mph
(ENE 13 kph)
- 7SM
09:55
Overcast
Rain
52°F / 11°C 52°F / 11°C 100% 30.01 in
(1016 mb)
NE 4.6 mph
(NE 7 kph)
- 3SM
09:35
Overcast
Rain
52°F / 11°C 52°F / 11°C 100% 30.01 in
(1016 mb)
NE 5.8 mph
(NE 9 kph)
- 2SM
09:15
Overcast
Heavy Rain
52°F / 11°C 52°F / 11°C 100% 30.04 in
(1017 mb)
ENE 4.6 mph
(ENE 7 kph)
- 1 1/2SM
08:55
Overcast
Heavy Rain
52°F / 11°C 52°F / 11°C 100% 30.01 in
(1016 mb)
ENE 6.9 mph
(ENE 11 kph)
- 2 1/2SM
08:35
Overcast
Rain
50°F / 10°C 50°F / 10°C 100% 30.01 in
(1016 mb)
ENE 6.9 mph
(ENE 11 kph)
- 1 3/4SM
08:15
Overcast
Heavy Rain
50°F / 10°C 50°F / 10°C 100% 30.04 in
(1017 mb)
ENE 4.6 mph
(ENE 7 kph)
- 2SM
07:55
Overcast
Rain
50°F / 10°C 50°F / 10°C 100% 30.04 in
(1017 mb)
NE 4.6 mph
(NE 7 kph)
- 4SM
07:35
Overcast
Light Rain
50°F / 10°C 50°F / 10°C 100% 30.06 in
(1018 mb)
NE 3.5 mph
(NE 6 kph)
- 4SM
07:15
Overcast
Rain
50°F / 10°C 50°F / 10°C 100% 30.06 in
(1018 mb)
NE 4.6 mph
(NE 7 kph)
- 3SM
06:55
Overcast
Rain
52°F / 11°C 50°F / 10°C 94% 30.06 in
(1018 mb)
NE 3.5 mph
(NE 6 kph)
- 4SM
06:35
Overcast
Light Rain
50°F / 10°C 50°F / 10°C 100% 30.06 in
(1018 mb)
NE 4.6 mph
(NE 7 kph)
- 4SM
06:15
Overcast
Light Rain
50°F / 10°C 50°F / 10°C 100% 30.06 in
(1018 mb)
NNE 3.5 mph
(NNE 6 kph)
- 4SM
05:55
Overcast
Light Rain
50°F / 10°C 50°F / 10°C 100% 30.06 in
(1018 mb)
NE 4.6 mph
(NE 7 kph)
- 5SM
05:35
Overcast
Light Rain
50°F / 10°C 50°F / 10°C 100% 30.06 in
(1018 mb)
NE 4.6 mph
(NE 7 kph)
- 4SM
05:15
Overcast
Rain
50°F / 10°C 48°F / 9°C 94% 30.09 in
(1019 mb)
NE 3.5 mph
(NE 6 kph)
- 4SM
04:55
Overcast
Rain
50°F / 10°C 48°F / 9°C 94% 30.09 in
(1019 mb)
ENE 4.6 mph
(ENE 7 kph)
- 2 1/2SM
04:35
Overcast
Rain
50°F / 10°C 48°F / 9°C 94% 30.12 in
(1020 mb)
NE 4.6 mph
(NE 7 kph)
- 3SM
04:15
Overcast
Rain
48°F / 9°C 48°F / 9°C 100% 30.12 in
(1020 mb)
Calm - 4SM
03:55
Overcast
Rain
48°F / 9°C 46°F / 8°C 94% 30.12 in
(1020 mb)
NE 3.5 mph
(NE 6 kph)
- 5SM
03:35
Overcast
Light Rain
48°F / 9°C 46°F / 8°C 94% 30.12 in
(1020 mb)
NE 3.5 mph
(NE 6 kph)
- 5SM
03:15
Overcast
Light Rain
48°F / 9°C 46°F / 8°C 94% 30.15 in
(1021 mb)
Calm - 7SM
02:55
Overcast
48°F / 9°C 45°F / 7°C 87% 30.15 in
(1021 mb)
Calm - 10SM
02:35
Overcast
48°F / 9°C 45°F / 7°C 87% 30.15 in
(1021 mb)
Calm - 10SM
02:15
Overcast
46°F / 8°C 45°F / 7°C 93% 30.18 in
(1022 mb)
Calm - 10SM
01:55
Overcast
Drizzle
48°F / 9°C 45°F / 7°C 87% 30.18 in
(1022 mb)
Calm - 7SM
01:35
Overcast
Rain
50°F / 10°C 45°F / 7°C 82% 30.18 in
(1022 mb)
Calm - 7SM
01:15
Overcast
Light Rain
52°F / 11°C 43°F / 6°C 72% 30.18 in
(1022 mb)
Calm - 7SM
00:55
Overcast
52°F / 11°C 41°F / 5°C 67% 30.18 in
(1022 mb)
Calm - 10SM
00:35
Overcast
54°F / 12°C 39°F / 4°C 58% 30.18 in
(1022 mb)
Calm - 10SM
00:15
Overcast
54°F / 12°C 37°F / 3°C 54% 30.18 in
(1022 mb)
NE 3.5 mph
(NE 6 kph)
- 10SM
Time Weather Temperature Dewpoint Humidity Pressure Winds Precip Visibility


Weather for websites

WeatherForYou.com, LLC is not responsible for any damages or problems caused by this service. Current weather conditions are obtained from the closest station including government and personal stations which may have varying degrees of accuracy. Weather forecasts are derived from the NOAA NDFD. Like all things, this site belongs to Jesus Christ... He just trusts me to maintain it. If you have any questions or comments email webmaster@weatherforyou.com

Copyright © 2014, WeatherForYou.com LLC. All rights reserved.